Location: Ladrillo (historical)
(32.8195°N, 117.2231°W)
Time: 15:36:46
(UTC+00:00)

Vanguard 1 Rocket - All Passes

Search period start: 27 February 2021 00:00
Search period end: 09 March 2021 00:00
Orbit: 654 x 4222 km, 34.3° (Epoch: 26 February)

Date Brightness Start Highest point End Pass type
(mag) Time Alt. Az. Time Alt. Az. Time Alt. Az.
27 Feb - 05:06:13 10° SE 05:13:48 13° ESE 05:22:22 10° ESE night (unlit)
27 Feb - 07:21:54 10° SSW 07:41:40 47° SE 08:05:21 10° ENE visible
27 Feb - 09:48:39 10° WSW 10:13:57 82° SSE 10:36:47 10° ENE visible
27 Feb - 12:21:27 10° W 12:48:13 86° N 13:05:11 10° E visible
27 Feb - 14:57:06 10° WNW 15:19:23 72° SSW 15:30:57 10° SE daylight
27 Feb - 17:33:39 10° W 17:45:01 25° SW 17:52:15 10° S daylight
28 Feb - 06:12:01 10° S 06:28:09 32° SE 06:48:54 10° E visible
28 Feb - 08:35:36 10° SW 08:58:23 70° SSE 09:23:04 10° ENE visible
28 Feb - 11:05:51 10° W 11:32:36 87° N 11:52:50 10° E visible
28 Feb - 13:40:34 10° WNW 14:05:52 85° SSW 14:20:01 10° ESE visible
28 Feb - 16:16:27 10° WNW 16:34:01 43° SW 16:43:38 10° SSE daylight
01 Mar - 05:04:34 10° SSE 05:15:36 18° SE 05:29:21 10° E visible
01 Mar - 07:23:51 10° SW 07:43:37 55° SE 08:08:23 10° ENE visible
01 Mar - 09:51:21 10° WSW 10:16:33 87° SSE 10:39:46 10° E visible
01 Mar - 12:24:19 10° W 12:51:09 88° N 13:08:21 10° E visible
01 Mar - 14:59:45 10° WNW 15:21:56 63° SSW 15:33:47 10° SE daylight
01 Mar - 17:37:42 10° W 17:47:04 19° SW 17:53:39 10° SSW daylight
02 Mar - 06:13:28 10° SSW 06:29:56 40° SE 06:52:22 10° ENE visible
02 Mar - 08:38:05 10° WSW 09:00:43 77° SSE 09:25:57 10° ENE visible
02 Mar - 11:08:45 10° W 11:35:27 86° N 11:55:57 10° E visible
02 Mar - 13:43:16 10° WNW 14:08:36 79° SSW 14:23:02 10° ESE visible
02 Mar - 16:19:28 10° WNW 16:36:10 36° SW 16:45:54 10° SSE daylight
03 Mar - 05:04:49 10° S 05:17:20 24° SE 05:34:15 10° E visible
03 Mar - 07:26:05 10° SW 07:45:40 63° SE 08:11:15 10° ENE visible
03 Mar - 09:54:11 10° WSW 10:19:15 89° NNW 10:42:47 10° E visible
03 Mar - 12:27:09 10° W 12:54:00 89° SSW 13:11:28 10° ESE visible
03 Mar - 15:02:27 10° WNW 15:24:18 55° SW 15:36:26 10° SE daylight
03 Mar - 17:43:01 10° W 17:49:02 13° WSW 17:53:52 10° SW daylight
04 Mar - 04:01:45 10° SE 04:05:33 11° ESE 04:09:45 10° ESE visible
04 Mar - 06:15:18 10° SSW 06:31:47 47° SE 06:55:29 10° ENE visible
04 Mar - 08:40:47 10° WSW 09:03:11 83° SSE 09:28:50 10° ENE visible
04 Mar - 11:11:41 10° W 11:38:20 86° N 11:59:03 10° E visible
04 Mar - 13:45:57 10° WNW 14:11:11 72° SSW 14:25:55 10° SE visible
04 Mar - 16:22:48 10° W 16:38:10 29° SW 16:47:49 10° S daylight
05 Mar - 05:05:56 10° S 05:19:04 31° SE 05:38:11 10° ENE visible
05 Mar - 07:28:33 10° SW 07:47:53 70° SSE 08:14:03 10° ENE visible
05 Mar - 09:57:08 10° W 10:22:02 87° N 10:45:49 10° E visible
05 Mar - 12:29:57 10° WNW 12:56:45 85° SSW 13:14:29 10° ESE visible
05 Mar - 15:05:14 10° WNW 15:26:28 46° SW 15:38:52 10° SSE daylight
06 Mar - 03:59:09 10° SSE 04:07:21 16° ESE 04:17:53 10° E visible
06 Mar - 06:17:28 10° SW 06:33:45 55° SE 06:58:23 10° ENE visible
06 Mar - 08:43:38 10° WSW 09:05:48 88° SSE 09:31:43 10° E visible
06 Mar - 11:14:37 10° W 11:41:10 88° N 12:02:08 10° E visible
06 Mar - 13:48:37 10° WNW 14:13:34 64° SSW 14:28:38 10° SE visible
06 Mar - 16:26:39 10° W 16:40:03 22° SW 16:49:14 10° S daylight
07 Mar - 05:07:35 10° SSW 05:20:54 38° SE 05:41:34 10° ENE visible
07 Mar - 07:31:14 10° WSW 07:50:16 77° SSE 08:16:50 10° ENE visible
07 Mar - 10:00:07 10° W 10:24:52 86° N 10:48:51 10° E visible
07 Mar - 12:32:43 10° WNW 12:59:21 79° SSW 13:17:23 10° ESE visible
07 Mar - 15:08:13 10° WNW 15:28:28 39° SW 15:41:00 10° SSE daylight
08 Mar - 03:59:27 10° S 04:09:08 22° SE 04:22:56 10° E visible
08 Mar - 06:19:53 10° SW 06:35:53 63° SE 07:01:09 10° ENE visible
08 Mar - 08:46:36 10° WSW 09:08:31 89° N 09:34:39 10° E visible
08 Mar - 11:17:32 10° W 11:43:55 89° SSW 12:05:09 10° ESE visible
08 Mar - 13:51:21 10° WNW 14:15:46 56° SW 14:31:09 10° SE daylight
08 Mar - 16:31:27 10° W 16:41:52 17° WSW 16:49:46 10° SSW daylight
